Lapse_Rate
6.7 6.5 6.5 6.5 6.5 6.5 6.5 6.5 6.5 6.5 6.5 6.5 6.5 6.5 6.5 6.1 5.8 6.0 5.8 5.6 5.6 6.0 6.2 6.0 5.8 5.5 5.1 5.0 5.0 5.7 4.6 4.4 4.9 5.3 7.0 6.9 6.7 4.6 5.0 4.7 5.4 4.8 4.5 3.6
6.5 6.5 6.5 6.5 6.5 6.5 6.5 6.5 6.5 6.5 6.5 6.5 6.5 6.5 6.5 6.5 6.4 6.1 6.1 5.8 5.8 5.6 5.6 6.3 5.8 5.1 5.3 5.2 5.2 5.2 5.0 5.5 5.8 6.0 5.6 5.9 2.6 1.7 1.3 3.0 3.7 3.5 3.0 2.4
6.5 6.5 6.5 6.5 6.5 6.5 6.5 6.5 6.5 6.5 6.5 6.5 6.5 6.5 6.5 6.5 6.3 6.1 6.4 6.4 6.1 5.9 6.0 6.3 6.1 5.7 5.3 6.1 5.9 5.5 5.1 4.7 6.0 4.8 5.0 2.2 0.5 -0.4 -0.1 1.2 0.9 1.3 1.8 1.8
6.5 6.5 6.5 6.5 6.5 6.5 6.5 6.5 6.5 6.5 6.5 6.5 6.5 6.5 6.5 6.5 6.5 6.5 4.8 4.3 4.5 5.1 6.0 6.4 6.6 5.6 5.2 5.4 6.1 5.2 5.1 4.8 4.2 4.2 5.1 3.4 3.6 1.4 -0.7 -0.8 0.5 0.8 1.9 1.9
6.5 6.5 6.5 6.5 6.5 6.5 6.5 6.5 6.5 6.5 6.5 6.5 6.5 6.5 6.5 6.5 6.5 6.5 6.5 4.8 5.2 4.1 4.3 4.7 4.6 4.9 5.0 4.5 3.6 5.7 5.1 4.8 4.3 5.8 5.3 3.5 1.5 -0.4 -1.6 -0.4 0.4 1.2 1.6 2.5
6.5 6.8 6.5 6.5 6.5 6.5 6.5 6.5 6.5 6.5 6.5 6.5 6.5 6.5 6.5 6.5 6.5 6.5 6.5 4.9 4.7 5.3 5.1 5.2 5.1 5.5 4.6 4.0 3.5 4.3 4.6 4.4 4.0 5.0 4.4 3.0 1.2 -1.3 -1.9 -1.0 0.5 0.4 0.8 2.2
6.5 6.5 6.5 6.5 6.5 6.5 6.5 6.5 6.5 6.5 6.5 6.5 6.5 6.5 6.5 6.5 6.5 6.5 6.5 5.0 5.4 5.9 6.0 5.3 5.7 4.7 4.6 4.2 3.6 3.4 4.3 4.2 3.6 4.1 3.7 3.5 2.7 0.1 -1.6 -1.3 -0.3 1.6 1.8 2.3
6.5 6.5 6.5 6.5 6.5 6.5 6.5 6.5 6.5 6.5 6.5 6.5 6.5 6.5 6.5 6.5 6.2 5.9 6.2 5.7 4.9 6.4 5.5 5.2 5.5 5.2 4.8 4.3 3.6 3.8 4.5 4.5 4.1 4.1 4.1 4.0 2.7 1.1 -0.6 0.1 1.0 1.9 1.7 2.4
6.5 6.5 6.5 6.5 6.5 6.5 6.5 6.5 6.5 6.5 6.5 6.5 6.5 6.5 6.5 6.5 6.5 6.7 5.7 4.8 4.3 5.8 5.0 6.1 5.6 5.5 5.2 4.7 3.8 4.1 4.2 4.8 4.5 4.5 4.6 4.5 3.7 2.2 1.6 0.5 2.0 1.6 2.0 3.3
6.5 6.5 6.5 6.5 6.5 6.5 6.5 6.5 6.5 6.5 6.5 6.5 6.5 6.5 6.5 6.5 6.5 6.5 6.5 6.1 5.6 5.4 6.4 5.8 5.8 5.6 5.8 5.2 4.3 4.3 4.4 4.7 4.6 5.0 4.7 4.6 3.2 2.3 2.0 2.2 1.7 2.8 3.1 4.4
6.5 6.5 6.5 6.5 6.5 6.5 6.5 6.5 6.5 6.5 6.5 6.5 6.5 6.5 6.5 6.5 6.5 6.5 6.5 6.1 6.0 6.0 6.0 6.0 6.0 5.4 5.2 4.8 4.4 3.9 4.5 5.1 5.5 4.9 5.0 2.4 1.9 3.0 3.0 2.5 3.5 3.7 3.4 3.6
6.5 6.5 6.5 6.5 6.5 6.5 6.5 6.5 6.5 6.5 6.5 6.5 6.5 6.5 6.5 6.5 6.5 6.5 6.0 5.5 5.0 6.7 5.9 6.3 6.2 5.9 4.7 5.1 4.9 4.3 5.0 6.3 4.6 4.0 2.6 1.2 2.1 3.0 2.2 3.8 3.2 3.8 4.0 3.9
6.5 6.5 6.5 6.5 6.5 6.5 6.5 6.5 6.5 6.5 6.5 6.5 6.5 6.5 6.5 6.5 6.5 6.4 5.9 5.0 5.9 6.1 5.2 5.8 6.0 5.7 5.1 5.1 5.4 6.0 6.1 5.7 4.2 2.3 1.5 1.9 2.6 3.1 4.1 3.2 4.7 4.7 3.8 3.9
6.3 6.5 6.5 6.5 6.5 6.5 6.5 6.5 6.5 6.5 6.5 6.5 6.5 6.5 6.5 6.5 6.5 6.5 6.5 6.6 5.7 5.8 6.0 5.1 5.8 5.7 5.5 6.7 5.2 5.8 5.2 4.8 3.1 2.1 2.1 2.5 2.9 4.5 4.2 4.5 5.2 4.2 3.8 4.4
6.5 6.5 6.5 6.5 6.5 6.5 6.5 6.5 6.5 6.5 6.5 6.5 6.5 6.5 6.5 6.5 6.5 6.5 6.6 6.4 5.8 5.7 6.7 4.7 5.7 5.9 6.3 6.3 5.9 5.1 4.8 3.8 3.0 3.1 3.4 4.5 4.9 5.0 4.7 4.7 4.5 4.4 4.8 3.7
6.5 6.5 6.5 6.5 6.5 6.5 6.5 6.5 6.5 6.5 6.5 6.5 6.5 6.5 6.5 6.5 6.6 6.4 6.5 6.9 6.6 6.7 6.2 4.8 6.0 7.0 6.4 5.9 5.1 4.4 3.4 3.5 3.7 4.1 5.5 6.0 5.0 4.7 4.3 4.4 3.4 3.6 3.7 2.9
6.5 6.5 6.5 6.5 6.5 6.5 6.5 6.5 6.5 6.5 6.5 6.5 6.5 6.5 6.5 6.5 6.5 6.5 6.6 6.7 6.6 6.6 6.1 6.6 6.0 6.6 5.6 5.7 5.3 4.2 4.1 4.8 5.8 6.3 6.3 5.8 5.0 4.8 4.0 3.6 4.0 3.9 3.3 2.3
6.5 6.5 6.5 6.5 6.5 6.5 6.5 6.5 6.5 6.5 6.5 6.5 6.5 6.5 6.5 6.5 6.7 6.5 6.6 6.6 6.2 6.2 6.7 6.9 6.6 5.2 4.5 5.0 4.9 4.8 5.4 6.0 5.8 5.4 4.8 3.6 2.6 2.5 3.3 3.9 2.4 1.9 2.5 2.2
6.5 6.5 6.5 6.5 6.5 6.5 6.5 6.5 6.5 6.5 6.5 6.5 6.5 6.5 6.5 6.5 6.2 6.7 6.3 6.9 6.7 6.5 7.3 6.7 5.4 4.8 4.8 5.5 6.1 5.5 5.6 5.1 4.6 3.3 2.1 1.9 1.7 1.6 1.4 3.3 4.1 2.2 2.5 2.4
6.5 6.5 6.5 6.5 6.5 6.5 6.5 6.5 6.5 6.5 6.5 6.5 6.5 6.5 6.5 6.6 6.5 6.5 6.8 6.4 6.4 5.5 5.3 5.0 4.9 6.0 6.1 6.6 6.1 5.6 5.3 4.3 3.2 2.5 2.0 2.6 3.0 3.3 4.5 3.4 1.8 2.7 2.9 3.2
6.5 6.5 6.5 6.5 6.5 6.5 6.5 6.5 6.1 6.5 6.5 6.2 6.5 6.7 6.5 6.5 6.6 7.1 7.3 6.4 6.6 6.9 6.8 7.0 7.1 6.7 6.9 6.3 5.7 4.7 4.0 2.8 2.1 2.0 2.0 3.3 3.4 3.8 2.8 2.3 2.9 3.3 3.2 3.0
6.5 6.5 6.5 6.5 6.5 6.5 6.4 6.4 6.5 6.4 6.2 6.1 6.4 6.4 6.0 6.5 6.3 6.9 6.7 6.9 6.3 6.1 5.9 5.8 5.5 5.6 5.3 5.0 3.9 2.7 2.3 2.8 1.9 1.7 3.2 4.4 3.4 3.3 3.2 2.0 2.0 2.3 2.3 2.8
6.5 6.5 6.5 6.5 6.5 6.2 5.0 6.4 6.0 5.0 5.9 6.0 6.3 6.4 5.0 5.3 6.3 6.4 6.6 5.9 7.0 7.6 6.4 5.7 5.6 5.2 4.7 4.2 2.4 0.8 1.7 3.5 3.5 3.0 2.6 2.7 3.7 3.4 2.0 1.4 1.6 2.2 3.0 2.8
6.5 6.1 6.5 6.5 6.5 6.5 5.8 5.2 5.5 5.4 5.8 6.0 6.7 6.7 6.1 3.9 5.4 6.5 5.6 6.1 6.5 6.7 7.2 7.3 6.4 5.9 5.4 4.7 3.8 3.0 4.1 4.0 3.6 3.8 3.9 2.6 1.8 1.9 2.0 2.1 2.0 2.1 2.3 2.8
6.4 6.5 6.5 6.5 6.5 5.7 5.8 5.6 5.9 5.8 6.2 6.5 6.6 6.7 4.8 4.5 5.7 5.5 5.5 5.7 6.2 6.4 6.6 5.5 3.8 3.1 3.0 3.2 3.0 3.3 3.7 4.0 3.4 2.4 1.8 2.1 2.1 1.8 1.4 1.4 1.7 2.0 1.9 2.6
6.0 6.5 6.5 6.5 6.1 5.9 5.9 5.2 5.7 5.0 5.6 6.6 5.9 5.6 5.6 4.9 4.7 5.0 5.4 5.5 5.4 5.0 4.6 3.6 2.7 2.4 3.4 3.9 4.5 4.8 4.7 3.7 2.5 2.0 1.5 1.7 1.4 1.5 1.5 1.7 1.8 4.2 4.2 4.5
Wind_Speed
10 4 7 12 10 13 12 8 8 11 9 6 9 15 15 15 15 17 15 13 13 15 12 9 9 9 9 9 9 11 11 10 6 4 9 9 8 7 8 6 10 15 16 15
3 7 10 11 11 10 8 7 10 9 9 10 10 21 18 21 22 19 18 17 16 13 12 14 11 10 10 9 9 9 9 13 12 7 5 5 5 3 4 5 7 12 13 15
8 2 13 11 7 4 6 6 7 9 11 10 15 18 13 10 17 20 21 21 17 16 16 15 14 12 10 13 12 9 9 9 14 10 5 7 7 4 4 5 4 5 11 12
7 6 5 4 9 7 6 3 6 5 6 4 9 7 7 10 9 7 9 8 10 13 15 15 16 13 11 11 13 10 9 9 9 10 9 15 10 9 3 4 5 7 10 8
4 4 5 5 6 6 3 7 5 5 6 9 4 4 6 6 6 6 8 8 6 9 10 10 10 10 9 7 7 14 11 9 9 13 12 10 8 6 7 8 10 9 5 8
5 3 1 4 3 4 6 2 4 6 4 5 12 9 6 0 2 6 7 7 9 5 6 6 8 6 6 8 7 5 10 9 9 11 11 14 14 13 10 10 9 8 6 5
4 8 3 3 4 5 3 2 2 2 3 6 3 8 12 15 15 16 8 7 1 6 3 6 5 7 7 9 9 7 8 8 9 9 10 14 13 15 15 15 10 12 9 7
6 4 15 9 9 4 7 4 3 5 3 3 6 7 6 8 9 6 5 6 8 2 2 5 7 7 9 9 10 9 8 7 8 11 11 10 13 10 10 12 11 9 9 8
6 3 3 11 6 9 5 6 2 3 5 2 5 6 9 13 14 12 9 10 8 4 6 6 8 9 10 9 9 10 9 8 9 11 10 11 13 13 12 12 12 9 10 9
4 3 3 8 6 9 6 3 1 1 3 6 6 8 9 7 8 6 9 5 5 6 5 4 6 9 12 10 8 9 9 9 9 11 9 13 12 12 13 13 13 14 13 11
3 2 2 5 8 9 6 5 4 3 3 4 5 4 2 6 7 8 8 1 4 3 3 3 5 7 12 10 6 8 8 8 11 8 15 13 10 12 13 12 12 13 14 13
5 3 3 8 7 12 8 8 9 3 5 4 5 12 22 16 3 8 11 5 7 8 5 1 3 6 10 9 7 7 8 12 11 14 15 14 13 14 13 13 13 13 13 11
7 3 2 2 3 8 5 7 11 11 7 13 9 10 4 15 22 18 12 9 11 4 7 4 3 6 8 8 5 6 11 11 15 15 15 13 13 13 14 14 12 13 13 11
8 3 5 3 2 4 4 5 8 7 6 12 21 31 25 23 22 18 15 15 12 9 5 6 3 4 7 3 2 9 13 14 14 14 14 14 14 14 14 14 13 13 11 10
2 2 4 7 11 9 11 15 17 16 18 14 24 25 28 23 24 20 15 12 7 6 1 7 4 3 3 3 6 13 13 13 13 14 13 14 15 14 15 13 12 12 9 8
3 3 3 5 13 16 18 17 17 15 16 15 18 24 19 16 15 10 9 11 10 7 5 8 5 4 3 7 9 11 11 11 13 13 13 14 16 15 15 13 13 10 9 9
5 2 1 4 7 10 7 5 6 8 11 10 9 15 20 17 10 5 4 5 6 7 6 3 6 5 10 9 9 10 10 9 12 14 14 15 15 14 13 13 12 10 7 8
3 4 2 4 8 2 3 9 9 8 11 10 14 15 15 12 6 7 7 7 10 9 8 3 7 11 11 11 11 12 12 12 13 13 14 15 16 14 10 9 10 8 6 6
8 1 2 2 3 8 7 3 2 4 4 8 8 8 9 6 5 5 11 13 8 11 5 10 12 12 12 13 13 14 13 13 13 12 13 13 13 12 12 9 7 6 7 6
10 9 3 3 3 3 1 4 4 5 2 2 3 6 9 9 5 4 11 14 15 15 13 14 14 14 14 13 14 15 13 14 13 12 12 10 9 9 9 6 7 5 5 5
3 4 8 7 3 7 7 3 6 2 4 4 2 3 5 3 2 4 6 11 13 13 14 14 12 13 13 13 15 14 12 12 12 12 11 8 9 6 8 7 6 6 5 5
6 6 4 3 4 7 2 1 3 3 3 4 3 1 4 6 6 5 8 9 10 12 13 13 12 11 11 11 13 14 12 9 10 11 11 10 9 7 5 7 6 6 5 4
4 6 4 6 5 6 6 2 3 5 3 4 3 2 6 6 5 6 8 8 8 12 11 9 10 11 9 10 10 15 11 10 11 12 11 11 9 6 6 6 6 4 4 3
5 5 2 1 4 5 3 5 6 5 4 4 4 3 5 8 6 7 8 8 7 8 9 9 12 13 12 10 10 11 12 11 12 12 10 7 7 7 6 4 4 4 4 3
1 3 3 5 9 6 4 5 4 5 5 3 3 2 8 10 8 7 7 6 5 6 7 10 11 11 12 11 11 10 11 11 11 9 7 6 5 6 5 5 4 4 4 4
3 5 4 4 1 2 2 4 4 6 5 3 6 6 7 7 9 9 8 6 6 9 10 11 11 12 12 12 11 10 9 10 10 8 5 5 4 4 4 3 3 4 4 2
Wind_Direction
196 186 189 196 219 243 286 303 304 311 328 320 272 271 263 263 251 251 244 248 245 247 249 244 238 250 244 232 228 201 178 179 173 189 192 185 191 156 159 149 148 134 142 146
153 247 223 230 213 232 274 294 286 295 300 337 307 282 276 259 256 245 244 242 242 247 242 245 241 219 230 238 246 230 197 181 187 193 192 186 120 102 116 115 113 122 126 130
184 171 214 253 255 238 260 259 285 300 313 289 275 278 248 252 236 238 238 239 239 238 242 245 250 237 220 219 234 244 216 189 188 183 159 97 90 68 73 92 89 107 120 129
241 235 159 204 236 213 245 6 336 305 325 266 21 292 267 279 266 242 222 220 220 232 242 247 251 262 238 221 214 229 225 202 183 171 159 160 165 162 162 122 117 112 122 131
219 221 185 229 221 223 239 60 355 311 304 324 245 235 269 189 239 249 258 211 231 220 215 229 229 227 244 263 227 209 216 211 184 184 162 163 145 116 130 123 121 129 130 145
215 53 224 209 227 279 83 343 222 255 256 252 216 200 276 270 78 19 336 227 208 97 40 355 331 303 240 245 239 236 212 193 174 175 154 151 150 137 141 146 149 143 137 153
247 238 172 281 196 154 209 101 298 235 214 236 202 198 250 295 290 293 261 318 30 113 42 314 335 317 287 235 236 216 216 200 165 153 138 150 158 147 151 156 155 151 154 162
188 217 193 176 218 172 194 182 199 273 235 297 325 244 241 235 246 192 223 253 250 77 61 18 325 305 282 252 206 203 195 184 162 143 148 156 135 147 149 156 156 150 154 153
166 249 137 150 188 222 136 200 215 307 268 282 233 283 299 267 268 273 257 228 203 164 82 15 340 312 293 271 210 188 182 177 162 149 154 144 142 146 152 142 145 144 141 147
19 182 186 153 192 208 193 145 87 6 265 264 242 254 249 335 344 348 346 54 110 101 72 29 333 306 305 283 223 181 169 172 154 152 136 134 137 134 139 142 145 146 143 144
178 217 89 84 211 195 189 229 236 8 239 259 303 242 81 359 354 342 330 36 61 39 320 359 312 309 304 291 240 172 156 150 146 135 128 117 122 129 133 134 140 143 132 130
170 147 222 218 242 205 209 197 206 201 235 230 284 276 255 265 299 342 303 225 222 215 199 246 323 311 300 293 275 158 153 149 121 112 111 117 115 126 125 131 134 125 127 123
161 204 252 278 188 232 223 229 220 229 284 247 267 258 319 307 305 297 269 294 269 277 202 150 46 315 294 304 283 141 130 118 115 113 114 119 127 127 133 127 122 127 125 124
146 174 219 203 129 103 266 270 248 232 257 267 249 277 279 291 301 304 313 278 252 244 234 141 106 300 289 314 340 88 91 106 109 114 120 130 130 129 128 124 128 125 120 125
116 217 271 268 280 284 270 265 258 248 249 254 281 281 289 294 289 288 279 284 266 254 219 129 122 238 298 24 90 97 98 102 112 119 126 131 127 125 120 118 117 110 109 104
186 265 343 288 266 253 254 252 252 262 265 265 272 278 291 290 284 287 16 17 13 359 290 123 133 192 94 89 92 93 94 101 115 120 127 125 122 117 114 114 105 106 122 116
160 174 328 258 326 295 269 226 226 239 253 263 278 292 307 312 304 340 35 323 313 314 323 122 154 140 98 92 98 89 92 102 115 121 121 115 109 106 107 109 117 122 117 101
172 189 228 281 308 289 169 198 206 241 273 264 268 289 304 313 338 54 356 304 278 256 251 210 126 109 108 105 103 101 100 105 109 108 105 103 100 100 102 112 115 125 130 125
186 242 278 273 305 271 287 142 227 200 292 272 293 318 328 332 329 52 351 335 281 236 203 113 103 106 106 107 107 104 100 99 95 95 91 94 108 121 122 140 148 112 109 104
194 214 263 348 307 276 90 155 142 152 246 18 344 349 340 349 5 17 352 14 44 64 85 99 103 110 106 110 113 107 108 110 112 112 110 110 124 137 131 125 101 97 94 98
171 196 220 231 268 281 277 117 146 317 288 347 22 8 359 34 21 357 52 50 57 73 82 88 94 99 108 110 107 102 108 112 112 110 118 127 94 101 101 99 101 98 101 103
171 171 193 187 215 262 198 332 341 259 330 341 354 142 108 102 93 59 66 67 86 81 87 100 107 110 111 113 117 115 111 119 132 125 109 108 105 95 101 99 86 87 88 95
208 206 185 193 216 257 320 272 32 58 336 346 318 318 130 126 90 102 101 90 78 116 128 126 126 126 124 122 124 121 128 119 110 102 93 89 100 123 102 97 98 94 85 77
232 252 223 272 265 256 50 32 48 55 8 341 326 347 145 123 128 112 96 84 94 95 108 104 99 98 96 95 96 101 110 112 109 111 116 118 108 95 87 82 74 78 65 49
311 11 236 260 281 290 78 71 40 59 42 12 344 86 115 123 121 112 103 97 89 99 91 98 101 100 101 106 105 109 113 113 108 102 98 97 92 94 86 77 83 76 71 86
213 212 199 237 89 182 79 82 46 74 64 50 90 75 94 113 120 115 110 103 92 92 97 100 103 107 109 109 109 108 108 109 112 108 101 99 94 88 89 86 63 56 102 93